Flag for USA

Past Weather in Garland, Texas, USA — Yesterday and Last 2 Weeks

Now
67 °F

Mostly cloudy.


Feels Like: 67 °F
Forecast: 80 / 64 °F
Wind: 3 mph from North

Location: Mesquite Metro Airport
Current Time: Sep 24, 2020 at 1:33:12 am
Latest Report: Sep 24, 2020 at 12:55 am
Visibility: 10 mi
Pressure29.94 "Hg
Humidity: 93%
Dew Point: 65 °F
Location of GarlandLocation

Past Weather in Garland — Graph

°F

Garland Temperature Yesterday

Maximum temperature yesterday: 72 °F (at 2:50 pm)
Minimum temperature yesterday: 63 °F (at 5:35 am)
Average temperature yesterday: 66 °F

High & Low Weather Summary for the Past Weeks

 TemperatureHumidityPressure
High88 °F (Sep 13, 1:50 pm)100% (Sep 9, 5:50 pm)30.25 "Hg (Sep 9, 5:50 pm)
Low56 °F (Sep 20, 4:55 am)37% (Sep 19, 3:50 pm)29.91 "Hg (Sep 9, 4:35 am)
Average71 °F83%30.06 "Hg
* Reported Sep 9 12:15 am — Sep 24 12:15 am, Garland. Weather by CustomWeather, © 2020

Note: Actual official high and low records may vary slightly from our data, if they occured in-between our weather recording intervals... More about our weather records

Garland Weather History for the Previous 24 Hours

Scroll right to see more
 ConditionsComfort  
Time TempWeatherWind HumidityBarometerVisibility
12:15 am
Thu, Sep 24
67 °FOvercast.5 mph94%29.95 "Hg10 mi
11:55 pm
Wed, Sep 23
67 °FOvercast.6 mph94%29.95 "Hg10 mi
11:35 pm67 °FOvercast.3 mph92%29.95 "Hg10 mi
11:15 pm68 °FMostly cloudy.3 mph90%29.95 "Hg10 mi
10:15 pm69 °FOvercast.3 mph86%29.95 "Hg10 mi
9:35 pm68 °FMostly cloudy.5 mph88%29.95 "Hg10 mi
9:15 pm68 °FOvercast.5 mph91%29.95 "Hg10 mi
7:50 pm70 °FMostly cloudy.5 mph83%29.93 "Hg10 mi
6:50 pm70 °FMore clouds than sun.3 mph83%29.92 "Hg10 mi
5:50 pm72 °FMostly cloudy.8 mph78%29.92 "Hg10 mi
4:50 pm72 °FOvercast.10 mph78%29.92 "Hg10 mi
3:50 pm72 °FOvercast.10 mph78%29.92 "Hg10 mi
2:50 pm72 °FMostly cloudy.12 mph78%29.94 "Hg10 mi
1:50 pm68 °FOvercast.9 mph88%29.96 "Hg10 mi
12:50 pm66 °FLow clouds.12 mph94%29.98 "Hg10 mi
12:13 pm66 °FLow clouds.9 mph94%29.98 "Hg7 mi
11:50 am66 °FOvercast.9 mph88%29.99 "Hg7 mi
10:50 am66 °FLow clouds.12 mph88%29.99 "Hg7 mi
9:50 am64 °FLow clouds.9 mph94%29.98 "Hg7 mi
8:50 am63 °FLow clouds.8 mph100%29.98 "Hg7 mi
7:50 am63 °FLow clouds.6 mph100%29.96 "Hg7 mi
6:50 am63 °FLow clouds.8 mph100%29.95 "Hg7 mi
6:35 am63 °FMostly cloudy.7 mph98%29.96 "HgN/A
6:15 am63 °FLow clouds.6 mph99%29.96 "Hg10 mi
5:55 am63 °FLow clouds.6 mph100%29.95 "Hg10 mi
5:35 am63 °FMostly cloudy.6 mph100%29.95 "Hg10 mi
5:15 am63 °FMostly cloudy.7 mph100%29.95 "Hg10 mi
4:55 am64 °FLow clouds.5 mph100%29.95 "Hg10 mi
4:35 am64 °FLow clouds.6 mph100%29.95 "Hg10 mi
4:15 am65 °FMostly cloudy.5 mph100%29.96 "Hg10 mi
3:55 am65 °FLow clouds.6 mph100%29.96 "Hg5 mi
3:35 am65 °FLow clouds.5 mph100%29.97 "Hg2 mi
3:15 am65 °FLow clouds.3 mph100%29.97 "Hg4 mi
2:55 am65 °FLow clouds.5 mph100%29.97 "Hg3 mi
2:35 am65 °FMostly cloudy.3 mph100%29.97 "Hg3 mi
2:15 am65 °FLow clouds.No wind100%29.97 "Hg4 mi
1:55 am65 °FLow clouds.3 mph100%29.98 "Hg3 mi
1:15 am65 °FLow clouds.5 mph100%29.98 "Hg10 mi
Weather by CustomWeather, © 2020

See weather overview